| time (UTC) | temp F | wind direction | speed knots | gust knots | rain 1hr in | rain 24hr in | rain mn in | humidity % | barometer mb |
| 20260906113705 | 72 | 354 | 3.5 | 5.2 | 0.00 | 0.00 | 0.00 | ||
| 20260906113020 | 72 | 7 | 3.5 | 5.2 | 0.00 | 0.00 | 0.00 | ||
| 20260906112735 | 72 | 7 | 3.5 | 5.2 | 0.00 | 0.00 | 0.00 | ||
| 20260906112705 | 72 | 7 | 3.5 | 5.2 | 0.00 | 0.00 | 0.00 | ||
| 20260906111635 | 72 | 1 | 3.5 | 6.1 | 0.00 | 0.00 | 0.00 | ||
| 20260906110905 | 72 | 51 | 2.6 | 6.1 | 0.00 | 0.00 | 0.00 | ||
| 20260906110635 | 72 | 51 | 2.6 | 6.1 | 0.00 | 0.00 | 0.00 | ||
| 20260906105634 | 72 | 100 | 3.5 | 7.8 | 0.00 | 0.00 | 0.00 | ||
| 20260906104819 | 72 | 32 | 2.6 | 7.8 | 0.00 | 0.00 | 0.00 | ||
| 20260906104741 | 72 | 32 | 2.6 | 7.8 | 0.00 | 0.00 | 0.00 | ||
| 20260906104709 | 72 | 32 | 2.6 | 7.8 | 0.00 | 0.00 | 0.00 | ||
| 20260906104635 | 72 | 32 | 2.6 | 7.8 | 0.00 | 0.00 | 0.00 | ||
| 20260906103907 | 72 | 80 | 5.2 | 9.6 | 0.00 | 0.00 | 0.00 | ||
| 20260906103730 | 72 | 80 | 5.2 | 9.6 | 0.00 | 0.00 | 0.00 | ||
| 20260906103655 | 72 | 80 | 5.2 | 9.6 | 0.00 | 0.00 | 0.00 | ||
| 20260906103604 | 72 | 80 | 5.2 | 9.6 | 0.00 | 0.00 | 0.00 | ||
| 20260906102648 | 72 | 0 | 4.3 | 9.6 | 0.00 | 0.00 | 0.00 | ||
| 20260906102534 | 72 | 0 | 4.3 | 9.6 | 0.00 | 0.00 | 0.00 | ||
| 20260906101534 | 72 | 51 | 5.2 | 7.8 | 0.00 | 0.00 | 0.00 | ||
| 20260906101006 | 72 | 68 | 4.3 | 10.4 | 0.00 | 0.00 | 0.00 | ||
| 20260906100542 | 72 | 68 | 4.3 | 10.4 | 0.00 | 0.00 | 0.00 | ||
| 20260906100504 | 72 | 68 | 4.3 | 10.4 | 0.00 | 0.00 | 0.00 | ||
| 20260906095723 | 72 | 357 | 3.5 | 9.6 | 0.00 | 0.00 | 0.00 | ||
| 20260906095504 | 72 | 357 | 3.5 | 9.6 | 0.00 | 0.00 | 0.00 | ||
| 20260906094434 | 72 | 39 | 6.1 | 11.3 | 0.00 | 0.00 | 0.00 | ||
| 20260906093650 | 72 | 59 | 6.1 | 9.6 | 0.00 | 0.00 | 0.00 | ||
| 20260906093434 | 72 | 59 | 6.1 | 9.6 | 0.00 | 0.00 | 0.00 | ||
| 20260906092802 | 72 | 30 | 4.3 | 8.7 | 0.00 | 0.00 | 0.00 | ||
| 20260906092729 | 72 | 30 | 4.3 | 8.7 | 0.00 | 0.00 | 0.00 | ||
| 20260906092438 | 72 | 30 | 4.3 | 8.7 | 0.00 | 0.00 | 0.00 | ||
| 20260906092404 | 72 | 30 | 4.3 | 8.7 | 0.00 | 0.00 | 0.00 | ||
| 20260906092229 | 72 | 27 | 6.1 | 8.7 | 0.00 | 0.00 | 0.00 | ||
| 20260906091706 | 72 | 27 | 6.1 | 8.7 | 0.00 | 0.00 | 0.00 | ||
| 20260906091404 | 72 | 27 | 6.1 | 8.7 | 0.00 | 0.00 | 0.00 | ||
| 20260906090334 | 72 | 52 | 6.1 | 10.4 | 0.00 | 0.00 | 0.00 | ||
| 20260906085357 | 71 | 359 | 6.1 | 8.7 | 0.00 | 0.00 | 0.00 | ||
| 20260906085306 | 71 | 359 | 6.1 | 8.7 | 0.00 | 0.00 | 0.00 | ||
| 20260906084343 | 71 | 55 | 4.3 | 6.1 | 0.00 | 0.00 | 0.00 | ||
| 20260906084304 | 71 | 55 | 4.3 | 6.1 | 0.00 | 0.00 | 0.00 | ||
| 20260906083304 | 71 | 39 | 3.5 | 6.1 | 0.00 | 0.00 | 0.00 | ||
| 20260906082306 | 71 | 58 | 3.5 | 5.2 | 0.00 | 0.00 | 0.00 | ||
| 20260906081234 | 72 | 20 | 4.3 | 6.1 | 0.00 | 0.00 | 0.00 | ||
| 20260906080234 | 72 | 58 | 3.5 | 5.2 | 0.00 | 0.00 | 0.00 | ||
| 20260906075639 | 72 | 10 | 2.6 | 7.0 | 0.00 | 0.00 | 0.00 | ||
| 20260906075204 | 72 | 10 | 2.6 | 7.0 | 0.00 | 0.00 | 0.00 | ||
| 20260906074134 | 73 | 72 | 5.2 | 6.1 | 0.00 | 0.00 | 0.00 | ||
| 20260906073635 | 73 | 97 | 3.5 | 9.6 | 0.00 | 0.00 | 0.00 | ||
| 20260906073134 | 73 | 97 | 3.5 | 9.6 | 0.00 | 0.00 | 0.00 | ||
| 20260906072508 | 73 | 25 | 4.3 | 7.8 | 0.00 | 0.00 | 0.00 | ||
| 20260906072104 | 73 | 25 | 4.3 | 7.8 | 0.00 | 0.00 | 0.00 | ||
| 20260906071412 | 74 | 75 | 4.3 | 8.7 | 0.00 | 0.00 | 0.00 | ||
| 20260906071104 | 74 | 75 | 4.3 | 8.7 | 0.00 | 0.00 | 0.00 | ||
| 20260906070447 | 74 | 41 | 5.2 | 7.8 | 0.00 | 0.00 | 0.00 | ||
| 20260906070034 | 74 | 41 | 5.2 | 7.8 | 0.00 | 0.00 | 0.00 | ||
| 20260906065034 | 74 | 58 | 2.6 | 8.7 | 0.00 | 0.00 | 0.00 | ||
| 20260906064034 | 75 | 42 | 4.3 | 7.0 | 0.00 | 0.00 | 0.00 | ||
| 20260906063004 | 75 | 28 | 4.3 | 9.6 | 0.00 | 0.00 | 0.00 | ||
| 20260906062004 | 75 | 90 | 3.5 | 9.6 | 0.00 | 0.00 | 0.00 | ||
| 20260906060934 | 76 | 0 | 3.5 | 9.6 | 0.00 | 0.00 | 0.00 | ||
| 20260906055904 | 76 | 65 | 3.5 | 7.8 | 0.00 | 0.00 | 0.00 | ||
| 20260906054834 | 77 | 42 | 4.3 | 7.8 | 0.00 | 0.00 | 0.00 | ||
| 20260906053804 | 77 | 35 | 3.5 | 6.1 | 0.00 | 0.00 | 0.00 | ||
| 20260906052804 | 77 | 76 | 4.3 | 7.0 | 0.00 | 0.00 | 0.00 | ||
| 20260906051804 | 78 | 48 | 4.3 | 7.8 | 0.00 | 0.00 | 0.00 | ||
| 20260906050734 | 78 | 38 | 4.3 | 7.0 | 0.00 | 0.00 | 0.00 | ||
| 20260906045704 | 79 | 23 | 4.3 | 7.0 | 0.00 | 0.00 | 0.00 | ||
| 20260906044704 | 79 | 49 | 3.5 | 7.0 | 0.00 | 0.00 | 0.00 | ||
| 20260906043704 | 80 | 55 | 2.6 | 7.8 | 0.00 | 0.00 | 0.00 | ||
| 20260906042704 | 80 | 23 | 5.2 | 8.7 | 0.00 | 0.00 | 0.00 | ||
| 20260906041634 | 80 | 96 | 4.3 | 11.3 | 0.00 | 0.00 | 0.00 | ||
| 20260906040634 | 81 | 34 | 6.1 | 9.6 | 0.00 | 0.00 | 0.00 | ||
| 20260906035604 | 81 | 51 | 4.3 | 11.3 | 0.00 | 0.00 | 0.00 | ||
| 20260906034604 | 82 | 59 | 6.1 | 12.2 | 0.00 | 0.00 | 0.00 | ||
| 20260906033534 | 82 | 41 | 5.2 | 12.2 | 0.00 | 0.00 | 0.00 | ||
| 20260906032504 | 83 | 53 | 8.7 | 14.8 | 0.00 | 0.00 | 0.00 | ||
| 20260906031504 | 84 | 63 | 7.8 | 14.8 | 0.00 | 0.00 | 0.00 | ||
| 20260906030753 | 84 | 39 | 7.8 | 13.9 | 0.00 | 0.00 | 0.00 | ||
| 20260906030434 | 84 | 39 | 7.8 | 13.9 | 0.00 | 0.00 | 0.00 | ||
| 20260906025404 | 84 | 41 | 5.2 | 7.8 | 0.00 | 0.00 | 0.00 | ||
| 20260906024647 | 84 | 44 | 2.6 | 7.0 | 0.00 | 0.00 | 0.00 | ||
| 20260906024404 | 84 | 44 | 2.6 | 7.0 | 0.00 | 0.00 | 0.00 | ||
| 20260906023404 | 85 | 80 | 4.3 | 6.1 | 0.00 | 0.00 | 0.00 | ||
| 20260906022404 | 85 | 49 | 4.3 | 9.6 | 0.00 | 0.00 | 0.00 | ||
| 20260906021404 | 86 | 31 | 5.2 | 8.7 | 0.00 | 0.00 | 0.00 | ||
| 20260906020334 | 86 | 45 | 4.3 | 7.0 | 0.00 | 0.00 | 0.00 | ||
| 20260906015306 | 86 | 46 | 3.5 | 5.2 | 0.00 | 0.00 | 0.00 | ||
| 20260906014234 | 87 | 45 | 2.6 | 6.1 | 0.00 | 0.00 | 0.00 | ||
| 20260906013234 | 87 | 6 | 2.6 | 4.3 | 0.00 | 0.00 | 0.00 | ||
| 20260906012204 | 87 | 39 | 1.7 | 5.2 | 0.00 | 0.00 | 0.00 | ||
| 20260906011204 | 88 | 65 | 2.6 | 5.2 | 0.00 | 0.00 | 0.00 | ||
| 20260906010204 | 88 | 17 | 2.6 | 5.2 | 0.00 | 0.00 | 0.00 | ||
| 20260906005204 | 89 | 51 | 4.3 | 6.1 | 0.00 | 0.00 | 0.00 | ||
| 20260906004204 | 89 | 14 | 2.6 | 5.2 | 0.00 | 0.00 | 0.00 | ||
| 20260906003204 | 90 | 75 | 1.7 | 5.2 | 0.00 | 0.00 | 0.00 | ||
| 20260906002203 | 90 | 14 | 0.0 | 0.0 | 0.00 | 0.00 | 0.00 | ||
| 20260906001203 | 91 | 14 | 0.0 | 0.0 | 0.00 | 0.00 | 0.00 | ||
| 20260906000133 | 92 | 14 | 0.0 | 2.6 | 0.00 | 0.00 | 0.00 | ||
| 20260905235133 | 92 | 70 | 3.5 | 5.2 | 0.00 | 0.00 | 0.00 | ||
| 20260905234103 | 93 | 31 | 1.7 | 4.3 | 0.00 | 0.00 | 0.00 | ||
| 20260905233033 | 94 | 17 | 0.9 | 6.1 | 0.00 | 0.00 | 0.00 | ||
| 20260905232003 | 95 | 37 | 2.6 | 3.5 | 0.00 | 0.00 | 0.00 | ||
| 20260905231348 | 96 | 86 | 1.7 | 3.5 | 0.00 | 0.00 | 0.00 | ||
| 20260905230933 | 96 | 86 | 1.7 | 3.5 | 0.00 | 0.00 | 0.00 | ||
| 20260905225933 | 96 | 30 | 1.7 | 3.5 | 0.00 | 0.00 | 0.00 | ||
| 20260905224933 | 96 | 93 | 0.9 | 3.5 | 0.00 | 0.00 | 0.00 | ||
| 20260905223933 | 96 | 118 | 1.7 | 5.2 | 0.00 | 0.00 | 0.00 | ||
| 20260905222903 | 97 | 118 | 0.9 | 3.5 | 0.00 | 0.00 | 0.00 | ||
| 20260905221833 | 95 | 332 | 0.9 | 4.3 | 0.00 | 0.00 | 0.00 | ||
| 20260905220803 | 96 | 0 | 1.7 | 4.3 | 0.00 | 0.00 | 0.00 | ||
| 20260905215733 | 96 | 349 | 0.9 | 7.0 | 0.00 | 0.00 | 0.00 | ||
| 20260905214703 | 97 | 356 | 2.6 | 6.1 | 0.00 | 0.00 | 0.00 | ||
| 20260905213703 | 99 | 44 | 1.7 | 7.0 | 0.00 | 0.00 | 0.00 | ||
| 20260905212703 | 99 | 353 | 0.0 | 5.2 | 0.00 | 0.00 | 0.00 | ||
| 20260905211633 | 99 | 346 | 1.7 | 7.8 | 0.00 | 0.00 | 0.00 | ||
| 20260905210603 | 99 | 329 | 2.6 | 6.1 | 0.00 | 0.00 | 0.00 | ||
| 20260905205533 | 98 | 330 | 4.3 | 7.8 | 0.00 | 0.00 | 0.00 | ||
| 20260905204533 | 98 | 319 | 6.1 | 11.3 | 0.00 | 0.00 | 0.00 | ||
| 20260905203503 | 98 | 333 | 4.3 | 11.3 | 0.00 | 0.00 | 0.00 | ||
| 20260905202433 | 99 | 308 | 6.1 | 8.7 | 0.00 | 0.00 | 0.00 | ||
| 20260905201433 | 100 | 340 | 4.3 | 7.0 | 0.00 | 0.00 | 0.00 | ||
| 20260905200403 | 97 | 322 | 2.6 | 8.7 | 0.00 | 0.00 | 0.00 | ||
| 20260905195403 | 100 | 48 | 2.6 | 9.6 | 0.00 | 0.00 | 0.00 | ||
| 20260905194333 | 101 | 7 | 5.2 | 8.7 | 0.00 | 0.00 | 0.00 | ||
| 20260905193333 | 99 | 321 | 7.0 | 10.4 | 0.00 | 0.00 | 0.00 | ||
| 20260905192306 | 98 | 14 | 4.3 | 10.4 | 0.00 | 0.00 | 0.00 | ||
| 20260905191303 | 99 | 326 | 4.3 | 7.8 | 0.00 | 0.00 | 0.00 | ||
| 20260905190233 | 99 | 335 | 4.3 | 8.7 | 0.00 | 0.00 | 0.00 | ||
| 20260905185233 | 98 | 10 | 6.1 | 10.4 | 0.00 | 0.00 | 0.00 | ||
| 20260905184203 | 98 | 308 | 5.2 | 7.8 | 0.00 | 0.00 | 0.00 | ||
| 20260905183133 | 98 | 298 | 0.9 | 7.0 | 0.00 | 0.00 | 0.00 | ||
| 20260905182133 | 97 | 298 | 4.3 | 7.8 | 0.00 | 0.00 | 0.00 | ||
| 20260905181103 | 97 | 353 | 4.3 | 7.8 | 0.00 | 0.00 | 0.00 | ||
| 20260905180033 | 98 | 301 | 4.3 | 7.0 | 0.00 | 0.00 | 0.00 | ||
| 20260905175003 | 97 | 315 | 3.5 | 7.0 | 0.00 | 0.00 | 0.00 | ||
| 20260905173933 | 98 | 297 | 5.2 | 7.8 | 0.00 | 0.00 | 0.00 | ||
| 20260905172903 | 97 | 259 | 2.6 | 8.7 | 0.00 | 0.00 | 0.00 | ||
| 20260905171903 | 97 | 304 | 1.7 | 7.0 | 0.00 | 0.00 | 0.00 | ||
| 20260905170903 | 98 | 333 | 0.9 | 6.1 | 0.00 | 0.00 | 0.00 | ||
| 20260905165833 | 96 | 326 | 2.6 | 6.1 | 0.00 | 0.00 | 0.00 | ||
| 20260905164833 | 97 | 329 | 0.0 | 5.2 | 0.00 | 0.00 | 0.00 | ||
| 20260905163833 | 95 | 333 | 1.7 | 6.1 | 0.00 | 0.00 | 0.00 | ||
| 20260905162803 | 94 | 323 | 2.6 | 6.1 | 0.00 | 0.00 | 0.00 | ||
| 20260905161733 | 94 | 321 | 0.9 | 5.2 | 0.00 | 0.00 | 0.00 | ||
| 20260905160703 | 94 | 295 | 4.3 | 7.0 | 0.00 | 0.00 | 0.00 | ||
| 20260905155633 | 93 | 323 | 0.0 | 5.2 | 0.00 | 0.00 | 0.00 | ||
| 20260905154603 | 94 | 295 | 2.6 | 7.0 | 0.00 | 0.00 | 0.00 | ||
| 20260905153533 | 93 | 277 | 1.7 | 6.1 | 0.00 | 0.00 | 0.00 | ||
| 20260905152503 | 92 | 300 | 0.9 | 6.1 | 0.00 | 0.00 | 0.00 | ||
| 20260905151433 | 91 | 300 | 3.5 | 7.0 | 0.00 | 0.00 | 0.00 | ||
| 20260905150433 | 91 | 302 | 3.5 | 6.1 | 0.00 | 0.00 | 0.00 | ||
| 20260905145403 | 90 | 322 | 5.2 | 7.8 | 0.00 | 0.00 | 0.00 | ||
| 20260905144403 | 90 | 300 | 4.3 | 7.0 | 0.00 | 0.00 | 0.00 | ||
| 20260905143333 | 89 | 309 | 2.6 | 6.1 | 0.00 | 0.00 | 0.00 | ||
| 20260905143135 | 89 | 330 | 2.6 | 4.3 | 0.00 | 0.00 | 0.00 | ||
| 20260905142717 | 89 | 330 | 2.6 | 4.3 | 0.00 | 0.00 | 0.00 | ||
| 20260905142333 | 89 | 330 | 2.6 | 4.3 | 0.00 | 0.00 | 0.00 | ||
| 20260905141631 | 88 | 312 | 3.5 | 5.2 | 0.00 | 0.00 | 0.00 | ||
| 20260905141333 | 88 | 312 | 3.5 | 5.2 | 0.00 | 0.00 | 0.00 | ||
| 20260905140303 | 88 | 283 | 1.7 | 3.5 | 0.00 | 0.00 | 0.00 | ||
| 20260905135306 | 87 | 283 | 2.6 | 3.5 | 0.00 | 0.00 | 0.00 | ||
| 20260905134233 | 86 | 245 | 0.0 | 0.0 | 0.00 | 0.00 | 0.00 | ||
| 20260905133233 | 83 | 245 | 0.0 | 0.9 | 0.00 | 0.00 | 0.00 | ||
| 20260905132203 | 81 | 262 | 0.0 | 0.0 | 0.00 | 0.00 | 0.00 | ||
| 20260905131133 | 80 | 262 | 0.0 | 0.0 | 0.00 | 0.00 | 0.00 | ||
| 20260905125401 | 78 | 262 | 0.0 | 0.0 | 0.00 | 0.00 | 0.00 | ||
| 20260905125033 | 78 | 262 | 0.0 | 0.0 | 0.00 | 0.00 | 0.00 | ||
| 20260905124033 | 78 | 262 | 0.0 | 0.0 | 0.00 | 0.00 | 0.00 | ||
| 20260905123033 | 77 | 262 | 0.0 | 0.0 | 0.00 | 0.00 | 0.00 | ||
| 20260905122003 | 76 | 262 | 0.0 | 0.0 | 0.00 | 0.00 | 0.00 | ||
| 20260905121003 | 75 | 262 | 0.0 | 0.0 | 0.00 | 0.00 | 0.00 | ||
| 20260905120449 | 75 | 262 | 0.0 | 0.0 | 0.00 | 0.00 | 0.00 | ||
| 20260905120003 | 75 | 262 | 0.0 | 0.0 | 0.00 | 0.00 | 0.00 | ||
| 20260905115310 | 75 | 262 | 0.0 | 0.0 | 0.00 | 0.00 | 0.00 | ||
| 20260905114933 | 75 | 262 | 0.0 | 0.0 | 0.00 | 0.00 | 0.00 | ||
| 20260905114235 | 75 | 262 | 0.0 | 0.0 | 0.00 | 0.00 | 0.00 |